This demonstration page uses our WeatherBlox Daily Observations layout. Learn more.

Left ArrowRight Arrow

Hourly Observations for April 18, 2020

Temp ( °F °C ) Dew Point ( °F °C ) Humidity (%) Winds ( mph kmh ) Pressure ( in mb ) Visibility ( mi km ) Precip ( " mm )
12:15 am 00:15 Mostly Cloudy 46 8 45 7 93 93 N 5 7 29.88 1012 10 16.0934 0 0
12:35 am 00:35 Cloudy 46 8 45 7 93 93 NNE 3 6 29.87 1011 10 16.0934 0 0
12:55 am 00:55 Cloudy 46 8 45 7 93 93 NNE 3 6 29.86 1011 10 16.0934 0 0
1:15 am 01:15 Cloudy 46 8 45 7 93 93 Calm 29.85 1011 10 16.0934 0 0
1:35 am 01:35 Cloudy 46 8 45 7 93 93 Calm 29.84 1010 10 16.0934 0 0
1:55 am 01:55 Cloudy 46 8 45 7 93 93 Calm 29.84 1010 10 16.0934 0 0
2:15 am 02:15 Cloudy 46 8 45 7 93 93 Calm 29.81 1009 10 16.0934 0 0
2:35 am 02:35 Cloudy 46 8 45 7 93 93 Calm 29.81 1009 10 16.0934 0 0
2:55 am 02:55 Cloudy 46 8 45 7 93 93 Calm 29.8 1009 10 16.0934 0 0
3:15 am 03:15 Cloudy 46 8 45 7 93 93 Calm 29.79 1009 10 16.0934 0 0
3:35 am 03:35 Cloudy 45 7 45 7 100 100 Calm 29.8 1009 10 16.0934 0 0
3:55 am 03:55 Cloudy 45 7 45 7 100 100 Calm 29.78 1008 10 16.0934 0 0
4:15 am 04:15 Cloudy 45 7 45 7 100 100 W 3 6 29.79 1009 10 16.0934 0 0
4:35 am 04:35 Cloudy 45 7 45 7 100 100 Calm 29.79 1009 7 11.26538 0.01 0.254
4:55 am 04:55 Cloudy 45 7 45 7 100 100 Calm 29.78 1008 10 16.0934 0.02 0.508
5:15 am 05:15 Cloudy 45 7 45 7 100 100 Calm 29.78 1008 10 16.0934 0 0
5:35 am 05:35 Cloudy 45 7 45 7 100 100 W 3 6 29.78 1008 10 16.0934 0 0
5:55 am 05:55 Cloudy 45 7 45 7 100 100 W 3 6 29.79 1009 5 8.0467 0.02 0.508
6:15 am 06:15 Cloudy 45 7 45 7 100 100 Calm 29.78 1008 7 11.26538 0.01 0.254
6:35 am 06:35 Cloudy 45 7 45 7 100 100 SW 6 9 29.79 1009 7 11.26538 0.01 0.254
6:55 am 06:55 Cloudy 45 7 45 7 100 100 SSW 6 9 29.78 1008 7 11.26538 0.02 0.508
7:15 am 07:15 Cloudy 45 7 45 7 100 100 SW 6 9 29.77 1008 7 11.26538 0 0
7:35 am 07:35 Cloudy 45 7 45 7 100 100 WSW 3 6 29.78 1008 7 11.26538 0 0
7:55 am 07:55 Cloudy 45 7 45 7 100 100 SW 5 7 29.78 1008 7 11.26538 0 0
8:15 am 08:15 Cloudy 45 7 45 7 100 100 Calm 29.78 1008 7 11.26538 0 0
8:35 am 08:35 Cloudy 45 7 45 7 100 100 Calm 29.8 1009 10 16.0934 0 0
8:55 am 08:55 Cloudy 45 7 45 7 100 100 N 6 9 29.82 1010 7 11.26538 0 0
9:15 am 09:15 Cloudy 45 7 43 6 93 93 NNW 12 19 29.82 1010 10 16.0934 0 0
9:35 am 09:35 Cloudy 45 7 45 7 100 100 NNW 15 24 29.82 1010 10 16.0934 0 0
9:55 am 09:55 Cloudy 46 8 43 6 87 87 NNW 15 24 29.82 1010 10 16.0934 0 0
10:15 am 10:15 Cloudy 46 8 43 6 87 87 N 17 28 29.83 1010 10 16.0934 0 0
10:35 am 10:35 Cloudy 50 10 43 6 76 76 NNW 20 31 29.84 1010 10 16.0934 0 0
10:55 am 10:55 Cloudy 48 9 41 5 76 76 NNW 25 41 29.86 1011 10 16.0934 0 0
11:15 am 11:15 Cloudy 46 8 39 4 76 76 N 25 41 29.88 1012 10 16.0934 0 0
11:35 am 11:35 Cloudy 48 9 37 3 66 66 N 18 30 29.89 1012 10 16.0934 0 0
11:55 am 11:55 Cloudy 48 9 37 3 66 66 NNW 21 33 29.9 1012 10 16.0934 0 0
12:15 pm 12:15 Cloudy 48 9 37 3 66 66 N 25 41 29.91 1013 10 16.0934 0 0
12:35 pm 12:35 Cloudy 48 9 37 3 66 66 NNW 25 41 29.91 1013 10 16.0934 0 0
12:55 pm 12:55 Cloudy 46 8 36 2 66 66 NNW 22 35 29.93 1014 10 16.0934 0 0
1:15 pm 13:15 Cloudy 46 8 37 3 71 71 NNW 17 28 29.93 1014 10 16.0934 0 0
1:35 pm 13:35 Cloudy 45 7 34 1 66 66 NNW 22 35 29.93 1014 10 16.0934 0 0
1:55 pm 13:55 Mostly Cloudy 46 8 36 2 66 66 NNW 25 41 29.93 1014 10 16.0934 0 0
2:15 pm 14:15 Partly Cloudy 50 10 36 2 58 58 NNW 18 30 29.93 1013 10 16.0934 0 0
2:35 pm 14:35 Mostly Cloudy 48 9 34 1 58 58 N 17 28 29.93 1013 10 16.0934 0 0
2:55 pm 14:55 Cloudy 46 8 34 1 62 62 NNW 17 28 29.94 1014 10 16.0934 0 0
3:15 pm 15:15 Cloudy 50 10 34 1 54 54 N 16 26 29.94 1014 10 16.0934 0 0
3:35 pm 15:35 Mostly Cloudy 50 10 34 1 54 54 NW 21 33 29.93 1013 10 16.0934 0 0
3:55 pm 15:55 Mostly Cloudy 50 10 36 2 58 58 NNW 16 26 29.94 1014 10 16.0934 0 0
4:15 pm 16:15 Mostly Cloudy 50 10 34 1 54 54 NNW 16 26 29.94 1014 10 16.0934 0 0
4:35 pm 16:35 Cloudy 50 10 32 0 50 50 NNW 18 30 29.94 1014 10 16.0934 0 0
4:55 pm 16:55 Mostly Cloudy 50 10 32 0 50 50 NNW 15 24 29.94 1014 10 16.0934 0 0
5:15 pm 17:15 Mostly Cloudy 52 11 32 0 47 47 NNW 12 19 29.93 1014 10 16.0934 0 0
5:35 pm 17:35 Partly Cloudy 52 11 32 0 47 47 NW 16 26 29.94 1014 10 16.0934 0 0
5:55 pm 17:55 Mostly Cloudy 52 11 32 0 47 47 NNW 12 19 29.94 1014 10 16.0934 0 0
6:15 pm 18:15 Partly Cloudy 52 11 30 -1 44 44 NNW 10 17 29.95 1014 10 16.0934 0 0
6:35 pm 18:35 Partly Cloudy 52 11 30 -1 44 44 NNW 13 20 29.95 1014 10 16.0934 0 0
6:55 pm 18:55 Partly Cloudy 52 11 30 -1 44 44 NW 14 22 29.95 1014 10 16.0934 0 0
7:15 pm 19:15 Sunny 50 10 30 -1 47 47 NNW 10 17 29.95 1014 10 16.0934 0 0
7:35 pm 19:35 Sunny 50 10 30 -1 47 47 NNW 16 26 29.95 1014 10 16.0934 0 0
7:55 pm 19:55 Clear 48 9 30 -1 50 50 NNW 8 13 29.96 1014 10 16.0934 0 0
8:15 pm 20:15 Clear 45 7 30 -1 57 57 NW 5 7 29.96 1015 10 16.0934 0 0
8:35 pm 20:35 Clear 45 7 30 -1 57 57 NW 6 9 29.98 1015 10 16.0934 0 0
8:55 pm 20:55 Clear 45 7 32 0 61 61 W 5 7 29.99 1016 10 16.0934 0 0
9:15 pm 21:15 Clear 43 6 32 0 66 66 W 5 7 30 1016 10 16.0934 0 0
9:35 pm 21:35 Clear 43 6 30 -1 61 61 WNW 3 6 30 1016 10 16.0934 0 0
9:55 pm 21:55 Clear 41 5 32 0 70 70 W 3 6 30.01 1016 10 16.0934 0 0
10:15 pm 22:15 Clear 41 5 32 0 70 70 W 6 9 30.01 1016 10 16.0934 0 0
10:35 pm 22:35 Clear 41 5 32 0 70 70 S 3 6 30.02 1017 10 16.0934 0 0
10:55 pm 22:55 Clear 43 6 30 -1 61 61 S 3 6 30.02 1017 10 16.0934 0 0
11:15 pm 23:15 Clear 37 3 32 0 81 81 SW 5 7 30.04 1017 10 16.0934 0 0
11:35 pm 23:35 Clear 37 3 32 0 81 81 W 3 6 30.04 1017 10 16.0934 0 0
11:55 pm 23:55 Clear 37 3 32 0 81 81 SW 5 7 30.04 1017 10 16.0934 0 0

Powered by AerisWeather